Wind_Speed
53 56 60 63 62 57 54 50 46 42 39 37 36 35 34 33 33 33 34 35 34 34 34 34 34 34 33 32 30 29 28 29 26 23 25 25 26 25 23 21 20 21 22
55 59 61 58 51 47 44 42 40 38 37 36 36 35 34 34 34 34 33 32 30 30 30 31 31 30 28 26 25 24 24 24 23 20 21 22 22 20 18 15 13 14 16
58 59 56 47 41 41 40 39 39 39 38 38 38 37 36 35 35 34 32 31 30 30 30 29 29 27 25 23 21 21 21 22 21 20 19 19 18 15 13 10 9 11 12
57 54 44 37 37 38 37 38 39 40 41 41 41 41 39 38 37 36 35 34 33 32 30 29 27 26 23 21 20 20 20 20 21 19 17 17 16 14 12 10 8 8 9
52 42 35 33 34 35 36 38 40 41 43 43 43 43 42 40 39 37 37 36 35 33 31 29 27 25 22 21 20 19 19 19 19 17 15 15 15 14 12 10 8 7 7
40 32 30 31 32 33 36 38 40 43 44 44 44 43 42 40 39 38 36 35 34 32 31 29 27 24 21 19 18 17 17 16 15 13 12 13 13 14 13 10 8 7 6
30 27 27 28 30 32 35 38 41 43 44 43 42 40 38 37 36 35 33 31 30 30 29 27 25 23 19 17 16 15 14 14 12 9 8 8 9 12 12 10 9 7 5
23 23 25 27 30 33 37 40 42 43 43 42 39 36 34 33 32 31 31 29 28 27 27 25 23 21 18 15 13 12 12 11 8 5 4 5 6 10 11 11 9 6 4
20 22 24 27 31 35 39 42 43 42 41 39 36 35 34 32 30 29 28 26 25 25 25 23 21 19 16 13 11 10 10 8 6 4 4 6 9 10 12 12 9 7 5
19 22 25 29 33 38 41 43 43 41 40 38 36 35 34 32 30 28 26 24 24 23 22 21 18 15 13 11 9 8 7 5 5 7 7 8 10 10 12 12 11 9 6
19 23 27 32 36 40 43 44 42 40 38 36 35 35 34 33 31 29 26 23 22 21 20 18 16 12 10 8 7 5 4 4 7 10 10 9 9 9 10 12 12 9 7
21 25 30 35 39 43 43 42 40 38 37 36 35 35 34 33 31 29 26 23 20 18 16 15 13 10 8 7 6 5 4 7 10 12 12 10 10 10 11 12 11 9 8
24 28 33 38 41 43 42 40 40 39 39 37 36 35 33 31 29 28 25 23 19 14 12 11 9 8 7 8 8 8 9 11 13 14 13 12 12 12 13 13 12 11 10
26 31 35 39 42 42 40 39 39 40 40 38 37 34 32 29 26 25 24 23 16 10 8 7 5 8 9 11 12 12 13 14 15 15 14 13 13 15 16 15 13 13 15
28 33 37 40 40 41 41 39 39 39 39 38 35 33 29 26 24 22 21 18 12 5 4 3 5 9 12 15 15 15 15 17 17 17 16 14 14 16 18 17 15 16 18
30 34 37 39 39 40 40 40 39 39 38 37 34 31 28 26 24 21 17 14 8 2 0 2 6 10 13 17 18 17 17 17 18 18 16 15 15 17 17 17 17 18 20
31 35 37 38 38 39 39 40 40 39 38 36 33 30 27 25 23 19 14 10 6 3 3 3 6 10 13 17 19 18 17 17 18 18 18 18 18 18 19 18 17 18 19
33 36 37 38 38 38 38 40 40 40 38 35 32 29 26 24 21 16 11 8 6 5 4 4 7 10 12 16 19 20 19 17 18 18 19 19 20 20 19 18 17 16 17
34 36 37 37 38 38 38 39 39 38 36 34 30 27 24 22 20 16 10 7 7 7 6 5 8 10 11 13 17 20 20 19 18 18 19 19 20 20 19 17 16 14 14
34 35 36 36 37 37 37 38 38 37 35 32 29 26 24 22 20 17 11 7 7 7 7 6 8 11 11 12 15 17 18 18 18 18 19 20 20 20 18 16 14 13 13
33 34 35 35 35 35 36 37 38 36 34 32 30 28 26 23 21 17 12 8 7 8 9 8 8 11 12 12 13 14 15 16 17 18 19 20 20 19 17 15 13 12 13
32 32 33 33 33 34 35 37 38 37 34 33 32 31 29 26 23 20 16 11 7 7 9 9 8 10 12 12 12 12 13 14 15 17 19 20 21 20 18 16 13 13 14
30 31 32 32 32 33 34 35 37 37 36 34 33 32 30 27 25 22 19 16 11 8 8 9 8 9 11 11 11 12 12 13 14 15 17 19 21 21 19 17 16 16 17
30 31 31 31 31 32 33 34 35 36 37 35 33 32 30 28 25 23 21 18 15 12 10 8 9 9 11 12 11 11 11 12 14 15 16 18 19 20 20 19 19 19 19
29 30 31 31 31 31 32 33 34 35 35 35 35 33 31 29 26 23 21 20 18 16 14 11 10 11 12 13 12 11 11 11 13 15 16 17 17 18 20 21 21 20 20
29 30 31 31 31 31 32 33 33 33 34 34 34 34 33 30 27 24 21 19 18 18 17 16 14 13 13 14 14 12 11 11 11 14 16 17 17 17 18 19 20 20 20
Wind_Direction
307 308 310 312 313 312 312 313 315 315 314 314 313 310 307 305 302 300 299 299 299 300 301 301 300 297 293 289 286 285 285 288 291 287 283 278 280 284 289 286 275 266 262
309 311 313 314 314 315 317 320 321 321 319 317 314 311 308 305 301 299 299 299 300 301 303 305 304 302 298 293 287 284 285 287 291 290 283 279 280 283 289 288 278 266 258
311 313 314 314 315 318 321 323 324 324 322 320 316 312 308 304 300 297 295 294 295 298 300 302 303 303 301 296 290 286 285 288 291 291 282 278 275 275 280 282 274 263 260
313 314 314 314 317 321 324 327 327 327 325 322 317 313 309 304 299 295 293 292 292 293 295 297 299 300 299 296 292 288 287 290 292 292 280 272 266 263 266 268 266 265 259
314 314 313 315 319 323 327 329 331 330 328 324 320 315 310 306 300 295 292 289 288 289 289 290 293 296 297 294 290 288 289 293 293 290 276 267 259 253 253 252 254 253 259
313 313 314 318 323 326 330 333 334 333 330 327 322 318 314 310 305 299 293 288 286 284 284 285 286 290 294 293 290 290 291 295 294 290 275 264 252 241 237 234 230 234 258
312 313 317 321 325 329 332 334 334 334 332 329 325 323 322 319 313 307 301 293 287 282 280 280 281 284 288 288 287 291 294 298 296 286 270 256 236 222 217 212 211 223 258
311 315 320 324 327 330 332 333 334 334 332 330 328 327 327 325 321 315 308 300 293 285 280 278 278 278 281 283 282 287 292 295 287 268 253 227 204 192 192 194 200 213 237
313 319 323 327 329 330 332 333 334 334 333 331 328 328 328 326 324 320 316 309 300 292 284 279 275 272 274 275 272 281 289 285 261 224 194 175 168 169 174 179 183 187 194
316 322 326 328 329 331 332 333 334 334 334 331 328 327 328 328 326 323 319 313 305 297 289 281 273 267 266 266 259 272 283 263 218 188 170 163 156 158 165 169 171 171 168
320 325 327 328 329 331 333 334 334 334 333 330 328 327 326 326 325 325 323 317 307 298 291 282 271 260 254 245 235 250 257 209 186 171 161 157 156 158 163 164 161 158 150
323 326 328 329 331 333 333 334 334 334 333 331 329 327 327 326 325 325 326 322 312 298 289 282 268 249 233 215 205 209 191 170 165 160 153 150 150 152 157 159 157 153 141
326 328 329 331 333 333 334 335 336 335 335 335 333 331 329 327 325 325 329 329 318 299 288 283 260 229 204 183 171 165 157 154 154 152 148 145 145 144 146 149 149 141 127
328 330 332 334 335 336 338 340 340 339 338 338 337 335 333 330 328 327 329 330 324 300 286 282 238 202 182 165 157 153 151 152 153 150 148 145 141 140 143 146 142 131 124
332 335 337 338 339 340 342 345 344 342 341 340 340 338 336 334 333 333 334 334 331 308 281 261 201 182 167 157 154 154 154 156 155 152 148 143 138 138 142 143 136 128 127
339 341 342 343 344 344 344 346 346 345 345 344 343 342 341 341 341 342 343 344 348 4 158 180 176 171 160 156 155 157 159 161 162 160 156 152 147 144 145 144 139 136 135
344 345 346 348 349 348 347 347 349 349 348 347 347 347 348 349 350 350 355 4 27 71 99 135 155 162 159 158 158 160 162 164 167 167 163 161 158 155 152 150 145 143 144
347 348 350 352 353 352 352 352 353 353 352 353 353 354 356 357 357 360 9 30 54 74 86 122 148 155 154 157 161 163 164 164 165 167 167 165 163 160 157 156 154 152 152
350 352 354 356 357 357 357 358 358 358 358 359 0 2 4 6 8 11 23 50 65 68 74 108 143 154 155 154 160 165 168 168 169 169 169 168 167 165 161 159 158 159 161
353 355 358 359 1 1 2 3 3 4 5 8 10 12 14 14 15 19 29 56 71 65 62 92 134 150 153 151 156 162 168 172 174 175 174 173 173 171 168 166 165 168 172
356 359 1 3 5 7 8 8 9 10 12 14 17 19 19 20 22 26 35 57 78 69 59 77 123 145 154 152 150 157 164 170 177 181 181 179 178 178 179 178 178 179 180
358 2 5 7 10 12 13 14 15 16 18 19 22 25 26 27 30 36 41 55 77 76 59 64 103 137 150 158 156 155 160 166 174 180 184 185 186 187 189 192 193 189 184
2 6 8 12 14 16 17 17 19 21 22 24 26 28 30 33 35 40 46 54 67 81 73 63 82 122 141 152 161 163 160 161 165 172 180 185 188 191 195 196 194 188 184
7 9 11 14 17 18 18 19 20 22 25 27 27 29 31 34 37 42 48 53 60 69 75 74 78 102 128 141 153 163 164 162 162 164 170 177 183 187 190 189 186 184 184
12 12 15 17 19 19 19 20 21 23 25 28 30 31 33 35 39 43 49 54 59 65 70 77 88 101 118 131 140 148 157 161 164 165 165 167 171 176 180 180 179 179 181
16 17 19 20 20 20 20 21 22 23 26 28 30 32 34 35 38 43 48 54 60 65 68 75 85 97 112 126 133 138 145 152 157 164 168 168 166 168 171 174 174 175 178
Height
5734 5726 5718 5709 5699 5689 5679 5669 5659 5650 5642 5635 5628 5622 5616 5611 5606 5602 5598 5594 5590 5586 5582 5578 5574 5570 5567 5564 5562 5560 5559 5557 5556 5556 5554 5551 5549 5547 5545 5543 5542 5543 5544
5722 5714 5706 5696 5687 5678 5670 5661 5652 5644 5636 5629 5622 5616 5610 5605 5600 5595 5590 5586 5582 5579 5575 5571 5567 5563 5559 5556 5554 5553 5552 5550 5549 5549 5547 5545 5543 5542 5541 5540 5539 5539 5540
5711 5702 5694 5685 5678 5670 5662 5654 5646 5638 5631 5623 5617 5610 5604 5598 5592 5587 5582 5578 5575 5571 5568 5564 5560 5557 5553 5550 5548 5547 5545 5544 5543 5542 5541 5539 5539 5538 5538 5538 5537 5538 5538
5700 5691 5683 5677 5670 5663 5656 5648 5640 5633 5625 5617 5610 5603 5596 5590 5584 5579 5574 5570 5566 5563 5560 5557 5554 5551 5548 5545 5543 5541 5540 5539 5537 5536 5535 5534 5534 5535 5535 5536 5536 5536 5537
5689 5682 5676 5670 5664 5657 5650 5643 5635 5627 5618 5610 5602 5594 5587 5580 5574 5569 5565 5561 5558 5555 5552 5550 5547 5544 5542 5539 5538 5536 5535 5533 5532 5530 5530 5530 5530 5531 5533 5534 5535 5535 5536
5681 5675 5670 5664 5659 5652 5645 5637 5629 5620 5611 5602 5593 5585 5577 5570 5564 5558 5554 5551 5548 5546 5544 5542 5540 5538 5536 5534 5532 5531 5530 5528 5527 5526 5525 5525 5526 5528 5530 5532 5534 5535 5536
5675 5670 5665 5660 5654 5648 5640 5632 5623 5614 5604 5595 5585 5577 5569 5562 5555 5549 5544 5541 5538 5536 5535 5534 5533 5531 5530 5529 5528 5527 5525 5524 5524 5523 5523 5523 5523 5525 5528 5531 5533 5535 5536
5670 5666 5661 5656 5650 5643 5635 5626 5617 5607 5597 5588 5578 5570 5563 5555 5548 5542 5536 5532 5529 5527 5526 5525 5525 5525 5524 5524 5523 5523 5522 5521 5521 5521 5521 5522 5522 5524 5527 5530 5533 5535 5537
5667 5663 5657 5652 5645 5637 5629 5620 5610 5601 5591 5581 5572 5565 5557 5550 5543 5536 5531 5526 5522 5520 5518 5518 5518 5519 5519 5519 5519 5520 5519 5519 5519 5520 5521 5522 5523 5525 5527 5531 5534 5536 5537
5664 5659 5654 5647 5640 5632 5623 5614 5604 5594 5584 5575 5567 5559 5552 5544 5538 5531 5526 5521 5517 5514 5512 5511 5512 5513 5515 5515 5516 5517 5517 5517 5518 5520 5522 5523 5524 5526 5529 5532 5535 5537 5539
5661 5656 5650 5643 5636 5627 5617 5608 5598 5589 5579 5570 5561 5553 5546 5539 5532 5526 5520 5516 5512 5509 5507 5506 5507 5509 5510 5512 5513 5514 5515 5516 5517 5520 5523 5525 5527 5529 5531 5534 5537 5539 5541
5658 5653 5646 5639 5630 5621 5612 5602 5593 5584 5574 5565 5556 5547 5540 5532 5526 5520 5515 5510 5506 5503 5502 5502 5503 5505 5507 5509 5511 5513 5514 5515 5518 5521 5524 5527 5529 5531 5534 5536 5539 5541 5543
5655 5649 5642 5634 5625 5616 5607 5597 5587 5577 5568 5559 5550 5541 5533 5526 5520 5515 5510 5506 5501 5499 5498 5499 5500 5503 5505 5508 5510 5512 5514 5516 5519 5522 5525 5528 5531 5533 5536 5539 5542 5543 5545
5652 5646 5638 5630 5620 5610 5601 5592 5581 5571 5562 5553 5544 5536 5528 5521 5515 5510 5506 5501 5497 5496 5496 5497 5498 5501 5504 5507 5510 5512 5515 5518 5521 5524 5527 5530 5533 5535 5538 5541 5544 5547 5549
5649 5642 5634 5625 5615 5605 5596 5587 5577 5567 5557 5548 5539 5531 5524 5518 5512 5507 5502 5498 5495 5494 5494 5496 5498 5501 5503 5506 5510 5513 5516 5519 5522 5526 5530 5533 5536 5538 5541 5544 5547 5550 5553
5646 5638 5630 5620 5611 5601 5592 5583 5574 5564 5554 5544 5535 5528 5520 5514 5508 5504 5500 5496 5494 5494 5495 5496 5498 5501 5503 5507 5510 5514 5517 5520 5524 5528 5531 5535 5538 5541 5544 5547 5551 5554 5557
5643 5635 5627 5617 5608 5599 5589 5580 5571 5561 5551 5542 5533 5525 5518 5512 5507 5503 5499 5497 5495 5495 5496 5497 5498 5501 5504 5507 5511 5515 5519 5522 5525 5529 5533 5536 5540 5543 5547 5550 5554 5557 5561
5641 5633 5624 5615 5606 5597 5587 5578 5568 5558 5548 5539 5531 5523 5517 5512 5507 5503 5500 5498 5497 5497 5498 5498 5500 5502 5505 5508 5512 5515 5519 5523 5527 5531 5535 5538 5542 5545 5549 5553 5556 5560 5563
5639 5631 5623 5614 5605 5596 5586 5577 5567 5558 5548 5539 5531 5524 5518 5513 5508 5504 5502 5501 5500 5500 5500 5500 5501 5504 5506 5509 5512 5516 5520 5524 5528 5532 5536 5540 5544 5548 5552 5555 5559 5562 5566
5638 5630 5622 5614 5605 5596 5587 5578 5569 5559 5550 5541 5533 5526 5520 5515 5511 5507 5504 5503 5503 5503 5502 5502 5503 5505 5508 5511 5514 5517 5521 5525 5529 5534 5538 5542 5546 5550 5554 5557 5561 5564 5567
5637 5630 5622 5614 5606 5598 5589 5580 5571 5562 5553 5544 5537 5529 5523 5518 5514 5510 5507 5506 5506 5506 5506 5505 5506 5507 5510 5513 5516 5519 5522 5526 5530 5534 5538 5543 5547 5551 5555 5559 5562 5565 5568
5638 5630 5623 5616 5608 5600 5592 5583 5574 5565 5557 5549 5541 5534 5528 5522 5518 5514 5511 5509 5509 5509 5509 5509 5509 5510 5513 5516 5519 5522 5524 5527 5531 5534 5538 5543 5547 5552 5556 5560 5563 5567 5570
5638 5631 5625 5617 5610 5602 5595 5587 5579 5570 5562 5554 5547 5540 5534 5528 5523 5519 5515 5513 5512 5512 5512 5512 5512 5513 5515 5518 5521 5524 5527 5530 5532 5535 5539 5543 5547 5552 5556 5560 5564 5568 5571
5640 5633 5626 5620 5613 5606 5599 5591 5584 5576 5568 5560 5553 5546 5540 5534 5529 5525 5521 5518 5516 5516 5515 5515 5515 5516 5518 5520 5523 5526 5529 5532 5535 5537 5541 5544 5548 5552 5556 5560 5564 5568 5572
5642 5636 5629 5622 5616 5609 5603 5595 5588 5581 5573 5566 5559 5552 5546 5540 5535 5531 5528 5524 5522 5520 5519 5519 5519 5519 5520 5523 5525 5528 5531 5534 5537 5540 5543 5546 5549 5553 5557 5561 5565 5569 5572
5645 5639 5632 5626 5619 5613 5606 5599 5592 5585 5579 5572 5565 5559 5553 5547 5542 5537 5534 5531 5528 5526 5525 5523 5523 5523 5524 5526 5528 5531 5534 5537 5539 5542 5545 5548 5552 5555 5558 5562 5566 5570 5573